Lorain / Elyria, OH

3:40 PM EST on November 19, 2017 (GMT -0500)
Lorain County Regional

Weather History for KLPR - January, 2013

Change the Weather History Date:

Thursday, January 3, 2013

  Actual Average (KCLE) Record (KCLE)
Temperature  
Mean Temperature 18 °F -  
Max Temperature 28 °F 36 °F 65 °F (1874)
Min Temperature 7 °F 22 °F -16 °F (1879)
Degree Days  
Heating Degree Days 48    
Moisture  
Dew Point 14 °F    
Average Humidity 74    
Maximum Humidity 85    
Minimum Humidity 60    
Precipitation  
Precipitation 0.00 in - - ()
Sea Level Pressure  
Sea Level Pressure 30.19 in    
Wind  
Wind Speed 9 mph (WSW)    
Max Wind Speed 18 mph    
Max Gust Speed -    
Visibility 8 miles    
Events      
Averages and records for this station are not official NWS values.
T = Trace of Precipitation, MM = Missing Value Source: NWS Daily Summary

Daily Weather History Graph

Daily Weather History Graph

Search for Another Location

Airport or City:

Trip Planner

Search our weather history database for the weather conditions in past years. The results will help you decide how hot, cold, wet, or windy it might be!

Date:

Astronomy

Jan. 03, 2013 Rise Set
Actual Time 7:54 AM EST 5:12 PM EST
Civil Twilight 7:23 AM EST 5:43 PM EST
Nautical Twilight 6:49 AM EST 6:17 PM EST
Astronomical Twilight 6:15 AM EST 6:51 PM EST
Moon 11:51 PM EST (1/3) 11:01 AM EST (1/3)
Length of Visible Light 10h 19m
Length of Day
9h 17m
Waning Gibbous, 65% of the Moon is Illuminated
Jan 3
Waning Gibbous
Jan 4
Last Quarter
Jan 11
New
Jan 18
First Quarter
Jan 26
Full

Hourly Weather History & Observations

Time (EST) Temp. Windchill Dew Point Humidity Pressure Visibility Wind Dir Wind Speed Gust Speed Precip Events Conditions
12:37 AM 12.2 °F 2.9 °F 8.6 °F 85% 30.19 in 8.0 mi SW 5.8 mph - N/A   Scattered Clouds
12:53 AM 12.9 °F 5.2 °F 8.1 °F 81% 30.23 in 7.0 mi SW 4.6 mph - N/A   Clear
1:53 AM 10.9 °F 2.9 °F 7.0 °F 84% 30.23 in 6.0 mi SSW 4.6 mph - N/A   Clear
2:53 AM 9.0 °F 0.6 °F 5.0 °F 84% 30.24 in 5.0 mi SSW 4.6 mph - N/A   Clear
3:53 AM 8.1 °F 1.4 °F 3.0 °F 80% 30.23 in 6.0 mi SSW 3.5 mph - N/A   Haze
4:53 AM 7.0 °F - 3.0 °F 84% 30.21 in 5.0 mi Calm Calm - N/A   Clear
5:53 AM 7.0 °F 0.1 °F 3.0 °F 84% 30.21 in 5.0 mi South 3.5 mph - N/A   Clear
7:53 AM 10.9 °F -1.8 °F 3.9 °F 73% 30.19 in 6.0 mi South 9.2 mph - N/A   Haze
8:53 AM 14.0 °F 1.2 °F 6.1 °F 71% 30.19 in 8.0 mi SSW 10.4 mph - N/A   Overcast
9:53 AM 17.1 °F 5.8 °F 8.1 °F 68% 30.18 in 8.0 mi SW 9.2 mph - N/A   Overcast
10:53 AM 23.0 °F 14.7 °F 12.0 °F 63% 30.18 in 10.0 mi WSW 6.9 mph - N/A   Overcast
11:53 AM 26.1 °F 14.0 °F 14.0 °F 60% 30.17 in 10.0 mi WSW 15.0 mph - N/A   Overcast
12:53 PM 27.0 °F 14.3 °F 16.0 °F 63% 30.14 in 10.0 mi WSW 17.3 mph - N/A   Overcast
1:12 PM 26.6 °F 14.3 °F 17.6 °F 69% 30.10 in 9.0 mi West 16.1 mph - N/A   Overcast
1:53 PM 28.0 °F 15.3 °F 18.0 °F 66% 30.14 in 10.0 mi WSW 18.4 mph - N/A   Overcast
2:53 PM 28.0 °F 16.5 °F 19.0 °F 69% 30.14 in 10.0 mi West 15.0 mph - N/A   Overcast
3:53 PM 28.0 °F 16.5 °F 19.9 °F 72% 30.16 in 9.0 mi WSW 15.0 mph - N/A   Overcast
4:53 PM 28.0 °F 15.7 °F 19.9 °F 72% 30.19 in 8.0 mi WSW 17.3 mph - N/A   Overcast
5:15 PM 28.4 °F 15.8 °F 19.4 °F 69% 30.14 in 7.0 mi WSW 18.4 mph - N/A   Overcast
5:53 PM 28.0 °F 16.5 °F 19.9 °F 72% 30.20 in 9.0 mi West 15.0 mph - N/A   Overcast
6:53 PM 28.0 °F 16.1 °F 21.0 °F 75% 30.21 in 8.0 mi WSW 16.1 mph - N/A   Overcast
7:53 PM 28.0 °F 18.1 °F 21.0 °F 75% 30.22 in 7.0 mi West 11.5 mph - N/A   Overcast
8:53 PM 28.0 °F 16.5 °F 21.9 °F 78% 30.22 in 7.0 mi West 15.0 mph - N/A   Overcast
9:53 PM 28.0 °F 16.5 °F 21.9 °F 78% 30.22 in 7.0 mi West 15.0 mph - 0.00 in   Overcast
10:53 PM 28.0 °F 17.0 °F 21.9 °F 78% 30.22 in 8.0 mi West 13.8 mph - N/A   Overcast
11:53 PM 28.9 °F 18.2 °F 21.0 °F 72% 30.21 in 9.0 mi West 13.8 mph - N/A   Overcast